Theta_e
343 342 343 340 338 339 341 340 338 342 346 348 348 350 350 352 355 354 356 356 356 356 357 357 358 357 357 354 358 356 355 356 357 357 357 358 357 357 357 356 354 352
343 343 347 343 340 340 341 343 341 341 345 348 349 350 350 351 354 354 355 356 357 356 357 358 357 357 356 354 356 355 356 355 354 359 356 355 356 356 356 356 355 355
343 343 344 343 340 339 339 342 342 341 344 347 349 350 350 352 352 353 354 355 356 356 356 358 357 357 357 356 356 355 355 354 354 358 356 354 355 355 355 355 354 355
343 343 343 344 343 340 340 340 341 342 342 343 346 349 351 353 352 352 352 360 355 355 355 357 358 357 358 357 357 355 355 354 355 355 355 355 355 354 353 352 353 353
344 343 343 343 344 344 342 340 340 340 341 342 343 346 350 351 351 351 351 353 355 355 355 355 358 358 358 357 357 355 356 355 355 355 353 353 354 355 353 353 351 350
346 344 345 343 343 343 344 342 340 340 340 342 342 344 345 348 350 350 351 351 353 354 354 355 355 358 358 357 357 356 356 356 356 355 354 353 354 356 356 354 352 351
347 345 344 345 343 342 343 344 343 342 340 340 343 343 344 344 345 347 348 351 352 354 353 354 354 356 358 357 357 356 356 356 356 355 354 353 354 354 356 353 352 351
347 347 346 345 344 343 342 343 344 344 342 341 341 344 345 344 343 344 346 348 352 353 353 354 354 354 357 357 356 356 356 357 356 355 354 353 353 352 353 355 352 350
349 348 347 346 345 344 343 342 343 345 345 343 341 342 346 346 345 343 344 344 348 352 352 353 354 354 355 357 357 356 356 356 356 354 354 353 352 352 352 353 352 352
349 349 348 347 345 345 344 343 342 343 347 345 344 343 343 346 347 346 345 345 344 348 352 353 354 355 355 356 356 356 356 355 355 354 354 353 353 353 353 352 353 352
350 350 349 348 347 346 345 345 344 343 345 347 346 345 344 344 346 347 347 346 346 346 349 352 353 354 354 354 356 357 357 356 356 355 354 354 353 353 358 353 353 353
351 351 351 350 349 348 347 346 345 344 343 345 347 346 346 345 344 345 348 347 347 347 348 350 352 354 354 354 354 356 356 357 356 356 355 354 355 354 354 355 354 354
352 351 351 351 351 351 350 349 347 346 345 344 347 347 347 346 346 344 345 348 349 348 348 349 351 352 354 354 353 354 355 356 356 355 355 354 354 354 355 356 356 355
353 353 353 352 352 352 352 351 350 349 348 346 346 346 347 347 347 346 344 345 349 350 350 350 350 350 352 353 353 353 353 354 355 355 355 354 354 353 354 355 356 357
354 354 354 353 353 352 352 352 352 351 351 349 348 347 348 347 348 348 346 344 346 349 351 351 351 350 351 351 352 352 353 353 354 355 355 354 354 354 353 352 354 356
354 354 353 353 352 351 351 352 352 352 352 352 350 349 348 348 347 348 348 346 344 347 350 352 352 353 349 341 345 353 352 353 354 354 354 354 353 353 353 353 353 353
355 354 353 352 352 351 351 351 351 352 352 352 352 350 349 349 348 347 347 348 346 345 347 351 353 354 342 335 336 341 351 352 352 353 354 354 353 353 352 353 354 354
355 354 353 352 352 351 351 351 351 351 351 351 351 351 350 350 349 347 347 348 348 347 346 349 351 345 335 333 334 334 342 353 352 352 354 353 354 353 353 353 353 353
355 354 353 353 352 352 351 351 350 350 350 350 350 351 351 349 348 348 347 347 348 347 347 348 349 341 333 331 332 332 333 346 352 352 352 353 353 353 353 353 353 352
355 354 353 353 353 352 352 351 350 350 350 351 351 351 351 350 349 348 347 347 348 348 348 349 349 341 330 328 329 329 331 337 352 352 352 352 352 353 353 353 353 352
356 355 354 353 353 352 352 351 351 350 350 350 350 350 350 350 349 348 347 348 348 349 349 350 351 337 328 325 325 325 328 334 351 353 352 352 352 352 352 352 352 353
355 355 355 354 353 352 352 351 351 351 350 350 350 350 351 351 351 350 348 347 348 349 349 350 352 334 327 324 323 323 327 340 349 352 352 351 351 351 352 352 352 352
353 354 355 355 354 353 351 351 351 351 351 352 350 350 349 350 351 350 350 349 348 349 349 350 352 337 325 322 321 322 325 343 347 351 352 352 351 350 350 351 353 352
351 353 354 355 354 353 353 352 353 353 352 353 350 349 349 350 351 351 351 351 349 349 350 350 351 341 322 321 320 320 329 344 347 349 350 351 352 352 350 348 351 362
351 352 354 355 355 354 354 353 353 353 353 353 352 351 350 351 352 352 352 351 351 350 348 350 351 343 320 321 319 318 328 346 348 349 349 350 351 351 351 350 349 356
351 352 354 356 355 355 355 355 355 354 353 352 352 352 351 350 351 352 351 351 352 351 351 352 352 353 337 318 318 317 320 346 349 349 348 349 351 351 351 350 350 351
Wind_Speed
11 9 11 11 10 9 10 9 8 10 9 9 9 9 9 9 8 9 8 7 7 7 7 7 6 6 6 4 4 4 5 7 6 5 5 6 5 5 5 5 4 5
13 12 9 10 8 7 7 9 9 10 10 9 10 9 8 7 8 9 9 8 8 8 7 7 7 7 6 5 5 5 5 6 7 4 6 6 6 5 6 5 5 5
12 11 11 11 12 11 11 9 8 9 10 10 10 9 8 8 8 8 9 9 8 8 8 8 7 7 7 6 5 5 6 5 6 5 6 7 6 6 6 5 4 5
14 14 13 13 12 13 11 9 7 7 7 8 9 9 9 8 8 9 8 9 8 8 8 7 8 7 7 7 6 6 6 6 5 4 5 5 6 6 6 5 4 4
15 14 12 12 11 11 11 10 11 9 8 10 9 9 9 8 8 8 8 8 8 8 8 8 7 8 7 7 7 7 6 6 5 5 5 5 5 5 6 5 5 5
14 13 13 12 12 11 11 12 12 11 10 9 10 8 9 9 9 9 9 9 8 9 9 8 8 8 8 8 7 7 7 6 6 5 5 6 5 5 4 5 5 5
15 13 14 12 12 12 12 13 12 12 11 11 8 9 9 9 9 9 9 10 10 9 9 9 9 9 8 8 8 7 7 7 6 6 7 7 6 6 5 5 6 6
15 14 13 12 13 13 13 12 12 12 12 10 10 11 10 11 11 10 9 9 10 10 10 10 10 9 8 7 8 8 8 6 7 8 8 7 6 6 6 5 5 6
14 14 13 14 15 13 14 14 12 12 11 12 12 11 10 11 11 11 11 10 10 10 11 10 10 10 9 9 9 10 10 8 8 8 9 8 8 8 8 6 5 6
15 14 15 15 15 14 15 14 13 12 11 12 12 11 11 11 11 12 11 10 11 11 10 11 11 10 10 10 11 11 10 10 9 9 9 9 9 9 7 7 8 6
16 15 15 16 16 14 15 14 14 12 11 12 12 12 12 11 11 10 11 11 11 11 11 11 11 11 11 11 10 10 11 10 10 9 9 9 9 9 8 8 8 8
17 16 16 16 16 15 16 15 14 13 13 12 12 13 12 12 12 11 11 12 12 12 12 11 11 11 12 12 12 10 10 10 9 9 9 9 8 8 8 7 8 9
16 16 16 15 15 15 14 14 14 14 14 13 12 13 13 12 12 12 11 11 12 12 12 12 11 11 11 11 10 9 9 9 9 9 9 8 8 9 8 8 8 8
15 15 15 15 14 13 13 14 13 13 13 13 12 13 13 13 13 13 12 11 12 12 13 12 12 11 11 11 10 10 9 9 9 9 10 9 9 9 8 8 9 9
14 13 13 13 14 13 14 14 13 13 13 12 12 12 12 13 13 13 13 13 12 12 13 12 12 12 10 10 10 10 9 10 10 10 10 10 9 9 9 9 8 9
13 13 13 13 14 14 14 14 13 13 13 13 13 13 12 12 13 13 13 14 14 13 12 11 11 10 13 17 15 11 10 10 9 10 10 10 10 9 9 9 10 9
13 13 13 14 15 14 14 14 14 13 12 13 13 12 13 13 13 14 14 13 14 14 13 12 11 11 17 17 18 18 13 10 10 10 10 10 10 10 10 10 9 9
14 14 14 15 14 15 15 14 13 13 13 13 12 13 13 12 13 14 14 13 13 13 13 13 12 14 17 18 19 19 17 12 10 10 9 10 10 10 10 10 10 9
14 15 15 15 15 15 14 13 14 14 14 14 15 13 12 13 14 14 14 13 13 13 14 13 12 16 17 18 19 19 19 16 10 10 10 10 11 11 11 10 10 9
14 15 16 16 15 14 14 14 15 16 15 14 12 12 13 13 14 15 14 13 13 13 13 13 13 15 17 18 18 19 19 16 11 11 10 11 11 11 10 11 11 10
14 14 15 15 15 15 15 15 16 15 15 14 13 13 13 13 14 14 14 14 14 13 12 13 13 17 17 18 18 19 19 16 12 10 9 9 10 10 11 11 10 10
15 15 15 15 16 16 16 16 16 15 15 13 12 12 12 11 12 12 14 14 13 13 13 14 14 18 18 19 19 18 18 11 11 11 10 10 10 10 10 10 10 10
14 14 14 15 15 16 17 16 15 15 13 12 13 13 13 13 13 13 12 13 14 14 14 14 13 15 19 20 20 20 14 9 10 10 10 11 11 11 11 10 9 10
14 14 14 13 13 16 17 16 14 13 14 13 14 14 14 13 12 12 12 13 14 15 14 13 13 13 18 19 20 20 16 12 10 10 11 11 12 12 9 8 10 16
12 12 13 14 15 16 14 14 15 15 12 12 13 13 14 12 11 12 12 12 13 14 16 16 13 12 16 19 20 19 16 11 10 9 11 11 11 12 10 8 9 12
13 14 14 14 15 15 13 13 12 11 12 13 13 12 12 12 11 12 13 13 12 13 13 14 14 12 13 20 20 20 20 14 9 10 11 13 12 11 10 8 9 9
Wind_Direction
186 190 192 193 194 193 187 177 180 183 190 187 190 197 197 200 193 192 195 194 193 190 197 205 207 213 221 194 196 197 201 202 208 206 197 197 208 211 217 226 225 223
190 189 192 192 194 194 192 188 179 184 189 190 194 194 199 190 197 192 193 196 196 196 194 201 205 208 213 207 191 189 198 197 208 204 201 200 214 212 222 221 219 228
192 189 190 190 193 196 194 194 185 187 186 194 193 192 193 195 193 196 196 195 197 198 195 197 201 206 209 210 194 193 187 186 198 201 198 204 210 212 227 219 220 224
199 194 192 194 193 196 195 190 194 193 192 188 194 194 192 194 193 197 199 198 198 202 201 196 199 201 205 206 197 200 199 201 204 183 194 207 209 207 221 219 219 221
199 199 197 195 196 197 195 195 197 196 194 196 194 193 192 192 192 199 199 203 201 205 202 202 198 200 199 199 196 202 203 204 212 201 198 207 220 213 226 219 227 227
203 202 199 197 196 193 198 202 202 199 201 197 197 191 194 192 193 196 199 202 205 205 205 203 200 202 198 198 196 202 201 206 208 204 214 217 222 219 226 219 222 232
201 200 202 202 201 198 200 204 206 205 204 204 195 200 195 197 197 198 198 203 205 205 206 203 202 202 200 196 197 203 205 206 207 206 213 221 217 226 228 221 220 226
203 201 202 202 204 204 205 204 206 207 207 204 202 206 200 203 205 205 200 199 203 206 206 206 204 202 199 193 199 203 208 204 210 208 213 220 214 224 222 220 218 224
201 203 202 203 205 207 209 208 208 208 205 203 205 205 205 206 208 210 210 206 205 206 206 206 203 203 199 196 201 203 206 210 210 209 212 215 215 220 219 214 217 223
201 205 204 205 207 209 211 211 210 210 206 208 208 206 204 207 208 209 211 212 213 212 208 208 206 204 201 201 203 202 206 210 210 211 215 218 218 217 215 211 217 222
201 202 206 208 210 209 211 211 212 211 208 209 209 211 209 206 209 207 208 209 213 215 212 211 209 205 204 206 208 205 206 208 209 212 216 219 222 221 214 210 217 219
201 201 205 209 212 212 212 211 212 212 211 210 209 211 210 209 208 207 206 208 211 214 213 213 211 208 208 209 209 208 207 208 209 212 217 219 223 227 224 216 215 221
201 202 202 206 210 213 214 212 212 213 213 213 209 211 210 210 211 211 210 208 211 212 213 212 211 209 211 213 212 208 207 208 210 213 218 219 222 224 226 224 222 224
203 202 203 205 207 211 215 215 214 213 214 214 211 211 213 212 211 211 214 212 211 212 213 212 210 210 211 212 211 206 204 208 209 211 215 221 225 225 224 225 225 225
199 202 203 204 206 208 212 215 215 215 214 214 213 214 214 215 213 211 212 216 216 214 214 212 212 213 210 209 207 207 204 208 209 210 212 216 223 227 225 226 227 228
196 199 200 201 204 206 210 211 214 214 214 214 215 214 215 215 215 214 212 213 215 216 215 213 215 214 213 208 205 203 204 209 208 211 211 213 218 223 228 227 229 229
195 199 199 201 203 205 206 208 212 213 214 215 215 214 215 214 214 216 215 213 214 215 215 215 216 215 210 206 207 206 203 206 206 210 211 214 215 216 224 225 229 229
197 198 200 203 203 205 204 205 207 211 215 215 216 216 214 213 215 216 217 215 215 216 216 216 218 216 207 205 205 206 205 205 207 208 208 211 213 216 221 225 228 228
194 197 200 202 204 204 203 202 204 209 213 214 215 214 212 214 217 215 217 217 216 215 217 217 220 215 207 205 206 206 206 206 209 209 209 210 212 214 218 221 225 229
195 196 199 202 200 200 201 203 204 208 210 213 214 212 214 217 216 217 217 217 217 215 216 218 219 218 206 205 205 205 205 205 215 211 213 214 213 214 216 218 218 221
198 200 202 201 199 199 200 203 205 207 207 209 210 212 213 214 215 217 217 217 218 216 215 218 220 215 205 204 205 203 205 200 216 216 215 219 220 219 218 217 217 218
194 199 202 200 198 198 201 205 205 205 206 205 209 214 215 215 217 217 217 217 217 216 216 219 221 210 203 203 203 204 199 199 212 216 217 220 224 223 221 219 217 216
202 204 205 204 200 198 202 204 205 205 206 201 208 213 214 214 215 214 215 215 215 216 217 221 222 209 201 202 203 202 191 205 209 216 222 225 229 227 223 219 217 216
207 207 206 205 206 208 205 202 202 203 203 199 206 209 215 216 214 216 216 215 214 216 215 218 222 210 200 203 202 198 190 201 206 211 223 226 234 234 227 222 219 217
208 209 210 207 207 211 208 204 201 202 199 198 206 208 214 214 213 216 217 216 216 215 214 215 221 212 198 203 203 197 193 205 203 210 220 228 231 237 230 222 226 227
209 208 209 208 210 210 205 207 205 202 200 202 204 207 210 212 213 214 217 218 215 214 214 214 217 216 198 203 202 199 195 200 205 206 219 227 229 232 234 226 226 229